This is the latest recevied weather packets stored in our database for station/object K0SDS. If no packets are shown the sender has not sent any weather packets the latest 10 day(s).
| Time | Temp. | Humidity | Pressure | Rain* | Wind** | Luminosity | Snow |
|---|---|---|---|---|---|---|---|
| 1778204802 | 17.78° C | 55% | 1009 hPa | 0 mm | - | 0 W/m² | - |
| 1778204498 | 17.78° C | 55% | 1009.1 hPa | 0 mm | - | 0 W/m² | - |
| 1778204195 | 17.78° C | 55% | 1009.1 hPa | 0 mm | - | 0 W/m² | - |
| 1778203892 | 18.33° C | 54% | 1009 hPa | 0 mm | - | 0 W/m² | - |
| 1778203589 | 18.33° C | 52% | 1009 hPa | 0 mm | - | 0 W/m² | - |
| 1778203286 | 18.33° C | 52% | 1009.1 hPa | 0 mm | - | 0 W/m² | - |
| 1778202985 | 18.89° C | 51% | 1008.9 hPa | 0 mm | - | 2 W/m² | - |
| 1778202681 | 18.89° C | 50% | 1008.9 hPa | 0 mm | - | 5 W/m² | - |
| 1778202378 | 18.89° C | 50% | 1009 hPa | 0 mm | - | 8 W/m² | - |
| 1778202077 | 19.44° C | 49% | 1008.9 hPa | 0 mm | - | 11 W/m² | - |
| 1778201773 | 19.44° C | 48% | 1008.8 hPa | 0 mm | - | 14 W/m² | - |
| 1778201469 | 19.44° C | 47% | 1008.9 hPa | 0 mm | - | 19 W/m² | - |
| 1778201165 | 20° C | 46% | 1008.7 hPa | 0 mm | - | 26 W/m² | - |
| 1778200862 | 20° C | 45% | 1008.7 hPa | 0 mm | - | 32 W/m² | - |
| 1778200558 | 20.56° C | 46% | 1009.1 hPa | 0 mm | - | 37 W/m² | - |
| 1778200256 | 20.56° C | 44% | 1008.9 hPa | 0 mm | - | 47 W/m² | - |
| 1778199952 | 20.56° C | 44% | 1008.8 hPa | 0 mm | - | 62 W/m² | - |
| 1778199650 | 20.56° C | 43% | 1008.8 hPa | 0 mm | - | 80 W/m² | - |
| 1778199345 | 20.56° C | 44% | 1008.8 hPa | 0 mm | - | 85 W/m² | - |
| 1778199042 | 21.11° C | 45% | 1009 hPa | 0 mm | - | 82 W/m² | - |
| 1778198738 | 21.11° C | 43% | 1008.9 hPa | 0 mm | - | 73 W/m² | - |
| 1778198435 | 21.11° C | 42% | 1008.8 hPa | 0 mm | - | 81 W/m² | - |
| 1778198132 | 21.11° C | 43% | 1009.1 hPa | 0 mm | - | 96 W/m² | - |
| 1778197829 | 21.67° C | 41% | 1009 hPa | 0 mm | - | 102 W/m² | - |
| 1778197525 | 21.67° C | 41% | 1008.9 hPa | 0 mm | - | 117 W/m² | - |
* Rain latest hour (hover to see other rain measurements)
** Current wind speed in m/s (hover to see current wind gust speed)